TimePST,TemperatureF,Dew PointF,Humidity,Sea Level PressureIn,VisibilityMPH,Wind Direction,Wind SpeedMPH,Gust SpeedMPH,PrecipitationIn,Events,Conditions,WindDirDegrees,DateUTC
12:15 AM,10.4,8.6,92,29.89,10.0,Calm,Calm,-,N/A,,Overcast,0,2013-01-11 08:15:00
12:35 AM,10.4,8.6,92,29.90,10.0,Calm,Calm,-,N/A,,Mostly Cloudy,0,2013-01-11 08:35:00
12:55 AM,12.2,10.4,92,29.90,10.0,Calm,Calm,-,N/A,,Overcast,0,2013-01-11 08:55:00
1:15 AM,12.2,10.4,92,29.90,10.0,ENE,4.6,-,N/A,,Mostly Cloudy,60,2013-01-11 09:15:00
1:35 AM,15.8,12.2,86,29.90,7.0,ESE,5.8,-,N/A,,Mostly Cloudy,110,2013-01-11 09:35:00
1:55 AM,17.6,15.8,93,29.91,1.0,ESE,4.6,-,N/A,,Overcast,120,2013-01-11 09:55:00
2:15 AM,17.6,15.8,93,29.91,1.2,SSE,4.6,-,N/A,,Overcast,150,2013-01-11 10:15:00
2:35 AM,15.8,12.2,86,29.91,10.0,South,3.5,-,N/A,,Mostly Cloudy,180,2013-01-11 10:35:00
2:55 AM,17.6,15.8,93,29.92,8.0,SSE,4.6,-,N/A,,Mostly Cloudy,150,2013-01-11 10:55:00
3:15 AM,14.0,12.2,93,29.91,10.0,SSW,3.5,-,N/A,,Mostly Cloudy,210,2013-01-11 11:15:00
3:35 AM,10.4,6.8,85,29.91,10.0,Calm,Calm,-,N/A,,Scattered Clouds,0,2013-01-11 11:35:00
4:15 AM,10.4,1.4,67,29.90,10.0,WSW,3.5,-,N/A,,Mostly Cloudy,250,2013-01-11 12:15:00
4:35 AM,14.0,14.0,100,29.90,10.0,Calm,Calm,-,N/A,,Overcast,0,2013-01-11 12:35:00
4:55 AM,15.8,14.0,93,29.91,10.0,WSW,9.2,-,N/A,,Overcast,240,2013-01-11 12:55:00
5:15 AM,17.6,14.0,86,29.92,10.0,NW,3.5,-,N/A,,Overcast,310,2013-01-11 13:15:00
5:35 AM,17.6,15.8,93,29.92,10.0,West,6.9,-,N/A,,Overcast,260,2013-01-11 13:35:00
5:55 AM,17.6,17.6,100,29.92,10.0,WSW,8.1,-,N/A,,Overcast,250,2013-01-11 13:55:00
6:15 AM,17.6,12.2,79,29.93,10.0,Calm,Calm,-,N/A,,Overcast,0,2013-01-11 14:15:00
6:35 AM,15.8,10.4,79,29.93,10.0,Calm,Calm,-,N/A,,Overcast,0,2013-01-11 14:35:00
6:55 AM,15.8,12.2,86,29.94,10.0,ESE,4.6,-,N/A,,Overcast,110,2013-01-11 14:55:00
7:15 AM,15.8,14.0,93,29.94,10.0,South,3.5,-,N/A,,Overcast,170,2013-01-11 15:15:00
7:35 AM,15.8,14.0,93,29.94,10.0,Calm,Calm,-,N/A,,Overcast,0,2013-01-11 15:35:00
7:55 AM,14.0,10.4,86,29.94,10.0,Calm,Calm,-,N/A,,Overcast,0,2013-01-11 15:55:00
8:15 AM,15.8,14.0,93,29.95,10.0,SE,3.5,-,N/A,,Overcast,140,2013-01-11 16:15:00
8:35 AM,15.8,12.2,86,29.96,10.0,Calm,Calm,-,N/A,,Mostly Cloudy,0,2013-01-11 16:35:00
8:55 AM,15.8,14.0,93,29.97,10.0,NW,4.6,-,N/A,,Mostly Cloudy,320,2013-01-11 16:55:00
9:15 AM,15.8,14.0,93,29.97,0.5,North,4.6,-,N/A,,Overcast,360,2013-01-11 17:15:00
10:15 AM,19.4,17.6,93,29.99,5.0,North,3.5,-,N/A,,Mostly Cloudy,10,2013-01-11 18:15:00
10:35 AM,21.2,19.4,93,29.99,5.0,NW,3.5,-,N/A,,Overcast,320,2013-01-11 18:35:00
10:55 AM,19.4,15.8,86,29.99,0.8,NNE,3.5,-,N/A,,Overcast,20,2013-01-11 18:55:00
11:15 AM,21.2,19.4,93,29.98,4.0,NNW,5.8,-,N/A,,Overcast,340,2013-01-11 19:15:00
11:35 AM,21.2,17.6,86,29.98,3.0,North,8.1,-,N/A,,Overcast,10,2013-01-11 19:35:00
12:15 PM,21.2,17.6,86,29.97,5.0,North,11.5,-,N/A,,Mostly Cloudy,10,2013-01-11 20:15:00
12:35 PM,21.2,15.8,80,29.97,10.0,North,10.4,16.1,N/A,,Clear,360,2013-01-11 20:35:00
12:55 PM,21.2,12.2,68,29.97,10.0,North,12.7,18.4,N/A,,Clear,360,2013-01-11 20:55:00
1:15 PM,21.2,14.0,74,29.97,10.0,North,17.3,23.0,N/A,,Clear,360,2013-01-11 21:15:00
1:35 PM,21.2,14.0,74,29.98,10.0,North,19.6,25.3,N/A,,Clear,360,2013-01-11 21:35:00
1:55 PM,21.2,10.4,63,29.99,10.0,North,17.3,-,N/A,,Partly Cloudy,10,2013-01-11 21:55:00
2:15 PM,21.2,14.0,74,30.00,10.0,North,17.3,-,N/A,,Clear,10,2013-01-11 22:15:00
2:35 PM,19.4,12.2,74,30.01,10.0,North,12.7,-,N/A,,Clear,10,2013-01-11 22:35:00
2:55 PM,19.4,10.4,68,30.02,10.0,North,18.4,-,N/A,,Clear,360,2013-01-11 22:55:00
3:15 PM,19.4,10.4,68,30.02,10.0,North,13.8,-,N/A,,Clear,10,2013-01-11 23:15:00
3:35 PM,17.6,8.6,68,30.03,10.0,North,12.7,-,N/A,,Clear,10,2013-01-11 23:35:00
3:55 PM,17.6,8.6,68,30.04,10.0,North,9.2,-,N/A,,Clear,360,2013-01-11 23:55:00
4:15 PM,17.6,8.6,68,30.04,10.0,North,9.2,-,N/A,,Clear,360,2013-01-12 00:15:00
4:35 PM,15.8,8.6,73,30.04,10.0,North,6.9,-,N/A,,Mostly Cloudy,10,2013-01-12 00:35:00
4:55 PM,12.2,6.8,79,30.04,10.0,NNE,9.2,-,N/A,,Partly Cloudy,20,2013-01-12 00:55:00
5:15 PM,12.2,6.8,79,30.04,10.0,North,9.2,-,N/A,,Clear,10,2013-01-12 01:15:00
5:35 PM,5.0,-7.6,56,30.05,10.0,NNW,4.6,-,N/A,,Clear,330,2013-01-12 01:35:00
5:55 PM,3.2,-5.8,66,30.05,10.0,NNW,8.1,-,N/A,,Clear,330,2013-01-12 01:55:00
6:15 PM,3.2,-7.6,61,30.05,10.0,NW,3.5,-,N/A,,Clear,310,2013-01-12 02:15:00
6:35 PM,-0.4,-2.2,92,30.06,10.0,NW,5.8,-,N/A,,Clear,320,2013-01-12 02:35:00
6:55 PM,3.2,1.4,92,30.06,10.0,NNW,10.4,-,N/A,,Clear,340,2013-01-12 02:55:00
7:15 PM,3.2,-0.4,85,30.07,10.0,NW,9.2,-,N/A,,Clear,310,2013-01-12 03:15:00
7:35 PM,1.4,-2.2,85,30.07,10.0,NW,6.9,-,N/A,,Clear,320,2013-01-12 03:35:00
7:55 PM,1.4,-0.4,92,30.06,10.0,NNW,8.1,-,N/A,,Clear,340,2013-01-12 03:55:00
8:15 PM,-2.2,-9.4,71,30.06,10.0,WNW,8.1,-,N/A,,Clear,300,2013-01-12 04:15:00
8:35 PM,-0.4,-11.2,60,30.07,10.0,WNW,4.6,-,N/A,,Clear,290,2013-01-12 04:35:00
8:55 PM,-0.4,-2.2,92,30.07,10.0,NW,5.8,-,N/A,,Clear,320,2013-01-12 04:55:00
9:35 PM,-0.4,-13.0,55,30.08,10.0,NNW,6.9,-,N/A,,Clear,340,2013-01-12 05:35:00
9:55 PM,-2.2,-7.6,78,30.08,10.0,NW,8.1,-,N/A,,Clear,320,2013-01-12 05:55:00
10:15 PM,-0.4,-2.2,92,30.08,10.0,NNW,9.2,-,N/A,,Clear,340,2013-01-12 06:15:00
10:35 PM,-2.2,-2.2,100,30.08,10.0,NNW,9.2,-,N/A,,Clear,330,2013-01-12 06:35:00
10:55 PM,-4.0,-7.6,85,30.08,10.0,North,10.4,-,N/A,,Clear,360,2013-01-12 06:55:00
11:15 PM,-4.0,-25.6,35,30.08,10.0,NNW,6.9,-,N/A,,Clear,340,2013-01-12 07:15:00
11:35 PM,-5.8,-5.8,100,30.08,10.0,Calm,Calm,-,N/A,,Clear,0,2013-01-12 07:35:00
11:55 PM,-5.8,-16.6,60,30.08,10.0,Calm,Calm,-,N/A,,Clear,0,2013-01-12 07:55:00